Location: Grand Lay
(47.3253°N, 0.9468°E)
Time: 08:45:22
(UTC+00:00)

SKYMED 2 - Pass Details

Date: 18 January 2026
Orbit: 622 x 624 km, 97.9° (Epoch: 16 February)

Event Time Altitude Azimuth Distance (km) Brightness Sun altitude
Rises 05:22:30 0° 177° (S) 2,892 7.1 -22.3°
Reaches altitude 10° 05:24:44 10° 182° (S) 1,990 6.2 -21.9°
Enters shadow 05:28:39 53° 242° (WSW) 772 3.7 -21.2°
